Weather in Kalafos

Greece     36°07′23″N   28°03′33″E
temp.,
°C
wind,
m/s
gust,
m/s
humid.,
%
clouds,
%
prec.,
mm/h
press.,
hPa
HPBL,
m
26 january, tue
tue2623:00+17sw688059 0.0 1017749
02:00+17ssw9108079 0.2 1016943
05:00+17ssw91181100 0.4 10161028
08:00+17s91175100 0.9 10161110
11:00+17s81070100 0.1 1016999
14:00+17s91168100 0.1 10131017
17:00+17s101272100 0.0 10121079
20:00+17s101270100 0.0 10111026
27 january, wed
wed2723:00+17s131667100 0.0 10091256
02:00+17s162067100 0.0 10051363
05:00+17ssw172269100 1.2 10022162
08:00+14wsw121479100 6.6 10031278
11:00+13w13156966 1.1 10041566
14:00+13w14175780 1.3 10042179
17:00+12wsw16196181 0.5 10052209
20:00+11w14176243 0.9 10072074
28 january, thu
thu2823:00+10w12146637 0.5 10091774
02:00+10w11136427 0.6 10101673
05:00+10wnw10125828 0.2 10091744
08:00+10wnw8105523 0.3 10121658
11:00+10wnw785886 0.3 10131631
14:00+11wnw675466 0.7 10131705
17:00+11wnw565491 0.1 10131554
20:00+10nw565790 0.1 10151312
29 january, fri
fri2923:00+10nnw454716 0.0 10151229
02:00+10nnw78478 0.0 10151320
05:00+9nnw68563 0.0 10161273
08:00+9n565831 0.0 1017918
11:00+11nw465270 0.0 10181603
14:00+12wnw675074 0.0 10161587
17:00+13wnw5751100 0.0 10161300
20:00+14wsw8107383 0.4 10171146
30 january, sat
sat3023:00+14w796969 0.6 10171205
02:00+14wsw567158 0.9 1016905
05:00+15ssw687386 0.1 10141007
08:00+16sw8118093 1.2 1013832
11:00+17ssw121480100 2.4 10111204
14:00+17sw13168072 2.6 1009918
17:00+17wsw6117933 0.0 1008578
20:00+17wsw588467 0.1 1009473